Change the Weather History Date:

Saturday, March 23, 2013

  Actual Average Record
Temperature  
Mean Temperature 77 °F -  
Max Temperature 84 °F 80 °F 89 °F (2005)
Min Temperature 70 °F 64 °F 60 °F (2001)
Cooling Degree Days 12    
Growing Degree Days 27 (Base 50)    
Moisture  
Dew Point 70 °F    
Average Humidity 81    
Maximum Humidity 100    
Minimum Humidity 57    
Precipitation  
Precipitation 0.01 in 0.15 in - ()
Sea Level Pressure  
Sea Level Pressure 30.04 in    
Wind  
Wind Speed 5 mph ()    
Max Wind Speed 16 mph    
Max Gust Speed -    
Visibility 7.9 miles    
Events      
Averages and records for this station are not official NWS values.
T = Trace of Precipitation, MM = Missing Value Source: Averaged Metar Reports

Daily Weather History Graph

Daily Weather History Graph

Search for Another Location

Airport or City:

Trip Planner

Search our weather history database for the weather conditions in past years. The results will help you decide how hot, cold, wet, or windy it might be!

Date:

Astronomy

Mar. 23, 2013 Rise Set
Actual Time 5:52 AM AEST 5:55 PM AEST
Civil Twilight 5:29 AM AEST 6:18 PM AEST
Nautical Twilight 5:02 AM AEST 6:45 PM AEST
Astronomical Twilight 4:34 AM AEST 7:12 PM AEST
Moon 3:00 PM AEST (3/23) 1:37 AM AEST (3/23)
Length of Visible Light 12h 49m
Length of Day
12h 03m
Waxing Gibbous, 80% of the Moon is Illuminated
Mar 23
Waxing Gibbous
Mar 27
Full
Apr 3
Last Quarter
Apr 10
New
Apr 18
First Quarter

Hourly Weather History & Observations

Time (AEST) Temp. Heat Index Dew Point Humidity Pressure Visibility Wind Dir Wind Speed Gust Speed Precip Events Conditions
12:00 AM 74 °F - 72 °F 90% 30.11 in 16 mi Calm Calm - -   Mostly Cloudy
12:00 AM 75.2 °F - 71.6 °F 89% 30.09 in 6.2 mi Calm Calm - N/A   Mostly Cloudy
12:30 AM 73.4 °F - 71.6 °F 94% 30.09 in 6.2 mi Calm Calm - N/A   Mostly Cloudy
1:00 AM 74 °F - 71 °F 88% 30.10 in - Calm Calm - -  
1:00 AM 73.4 °F - 71.6 °F 94% 30.09 in 6.2 mi Calm Calm - N/A   Mostly Cloudy
1:30 AM 73.4 °F - 71.6 °F 94% 30.06 in 6.2 mi Calm Calm - N/A   Mostly Cloudy
2:00 AM 71.6 °F - 69.8 °F 94% 30.06 in 6.2 mi Calm Calm - N/A   Scattered Clouds
2:30 AM 71.6 °F - 69.8 °F 94% 30.06 in 6.2 mi Calm Calm - N/A   Mostly Cloudy
3:00 AM 72 °F - 71 °F 94% 30.08 in 16 mi West 3.5 mph - -   Partly Cloudy
3:00 AM 73.4 °F - 69.8 °F 88% 30.06 in 6.2 mi West 3.5 mph - N/A   Scattered Clouds
3:30 AM 71.6 °F - 69.8 °F 94% 30.06 in 6.2 mi WSW 1.2 mph - N/A   Scattered Clouds
3:33 AM 71.6 °F - 69.8 °F 94% 30.06 in 6.2 mi WSW 1.2 mph - N/A   Scattered Clouds
3:37 AM 71.6 °F - 69.8 °F 94% 30.06 in 6.2 mi SW 3.5 mph - N/A   Scattered Clouds
4:00 AM 72 °F - 70 °F 93% 30.06 in - Calm Calm - -  
4:00 AM 71.6 °F - 69.8 °F 94% 30.06 in 6.2 mi Calm Calm - N/A   Scattered Clouds
4:30 AM 69.8 °F - 64.4 °F 83% 30.06 in 6.2 mi Calm Calm - N/A   Mostly Cloudy
5:00 AM 69.8 °F - 69.8 °F 100% 30.06 in 6.2 mi Calm Calm - N/A   Mostly Cloudy
5:30 AM 71.6 °F - 69.8 °F 94% 30.06 in 6.2 mi West 4.6 mph - N/A   Mostly Cloudy
6:00 AM 71 °F - 69 °F 93% 30.10 in 16 mi WSW 6.9 mph - -   Partly Cloudy
6:00 AM 69.8 °F - 69.8 °F 100% 30.09 in 6.2 mi WSW 6.9 mph - N/A   Mostly Cloudy
6:30 AM 71.6 °F - 69.8 °F 94% 30.09 in 6.2 mi WSW 5.8 mph - N/A   Mostly Cloudy
7:00 AM 73 °F - 71 °F 92% 30.12 in - SSW 3.5 mph - -  
7:00 AM 73.4 °F - 71.6 °F 94% 30.09 in 6.2 mi SSW 3.5 mph - N/A   Mostly Cloudy
7:30 AM 75.2 °F - 71.6 °F 89% 30.09 in 6.2 mi SSW 6.9 mph - N/A   Mostly Cloudy
8:00 AM 75.2 °F - 69.8 °F 83% 30.06 in 6.2 mi WNW 3.5 mph - N/A   Mostly Cloudy
8:30 AM 77.0 °F - 69.8 °F 78% 30.06 in 6.2 mi North 5.8 mph - N/A   Mostly Cloudy
9:00 AM 78 °F - 69 °F 66% 30.10 in 19 mi NW 6.9 mph - -   Partly Cloudy
9:00 AM 78.8 °F - 68.0 °F 69% 30.09 in 6.2 mi NW 6.9 mph - N/A   Mostly Cloudy
9:30 AM 78.8 °F - 68.0 °F 69% 30.09 in 6.2 mi NNW 5.8 mph - N/A   Mostly Cloudy
10:00 AM 80 °F - 69 °F 61% 30.08 in - North 6.9 mph - -  
10:00 AM 80.6 °F 83.9 °F 69.8 °F 70% 30.06 in 6.2 mi North 6.9 mph - N/A   Mostly Cloudy
10:30 AM 78.8 °F - 69.8 °F 74% 30.06 in 6.2 mi North 8.1 mph - N/A   Mostly Cloudy
11:00 AM 80.6 °F 83.2 °F 68.0 °F 65% 30.06 in 6.2 mi North 6.9 mph - N/A   Mostly Cloudy
11:30 AM 82.4 °F 85.4 °F 68.0 °F 62% 30.04 in 6.2 mi NNE 6.9 mph - N/A   Scattered Clouds
12:00 PM 81 °F - 68 °F 57% 30.05 in 19 mi NNE 9.2 mph - -   Partly Cloudy
12:00 PM 80.6 °F 83.2 °F 68.0 °F 65% 30.04 in 6.2 mi NNE 9.2 mph - N/A   Partly Cloudy
12:30 PM 84.2 °F 89.6 °F 71.6 °F 66% 30.01 in 6.2 mi NNE 10.4 mph - N/A   Partly Cloudy
1:00 PM 81 °F - 70 °F 61% 30.02 in - NNE 12.7 mph - -  
1:00 PM 80.6 °F 83.9 °F 69.8 °F 70% 30.01 in 6.2 mi NNE 12.7 mph - N/A   Partly Cloudy
1:30 PM 82.4 °F 86.3 °F 69.8 °F 66% 29.98 in 6.2 mi NNE 12.7 mph - N/A   Partly Cloudy
2:00 PM 82.4 °F 86.3 °F 69.8 °F 66% 29.98 in 6.2 mi NNE 16.1 mph - N/A   Partly Cloudy
2:30 PM 80.6 °F 83.9 °F 69.8 °F 70% 29.98 in 6.2 mi NNE 15.0 mph - N/A   Partly Cloudy
3:00 PM 81 °F - 69 °F 58% 29.97 in 19 mi NNE 15.0 mph - -   Partly Cloudy
3:00 PM 80.6 °F 83.2 °F 68.0 °F 65% 29.95 in 6.2 mi NNE 15.0 mph - N/A   Partly Cloudy
3:30 PM 80.6 °F 83.9 °F 69.8 °F 70% 29.98 in 6.2 mi North 15.0 mph - N/A   Partly Cloudy
4:00 PM 80 °F - 70 °F 63% 29.97 in - North 16.1 mph - -  
4:00 PM 80.6 °F 83.9 °F 69.8 °F 70% 29.95 in 6.2 mi North 16.1 mph - N/A   Partly Cloudy
4:30 PM 78.8 °F - 69.8 °F 74% 29.95 in 6.2 mi North 16.1 mph - N/A   Partly Cloudy
5:00 PM 78.8 °F - 71.6 °F 78% 29.98 in 6.2 mi North 16.1 mph - N/A   Partly Cloudy
5:30 PM 77.0 °F - 71.6 °F 83% 29.98 in 6.2 mi North 16.1 mph - N/A   Partly Cloudy
6:00 PM 77 °F - 72 °F 79% 29.98 in 19 mi North 15.0 mph - -   Partly Cloudy
6:00 PM 77.0 °F - 71.6 °F 83% 29.98 in 6.2 mi North 15.0 mph - N/A   Partly Cloudy
6:30 PM 77.0 °F - 71.6 °F 83% 29.98 in 6.2 mi North 12.7 mph - N/A   Partly Cloudy
7:00 PM 77 °F - 71 °F 77% 29.98 in - North 12.7 mph - -  
7:00 PM 77.0 °F - 71.6 °F 83% 29.98 in - North 12.7 mph - N/A   Clear
7:30 PM 77.0 °F - 71.6 °F 83% 29.98 in - North 11.5 mph - N/A   Clear
8:00 PM 77.0 °F - 71.6 °F 83% 30.01 in 6.2 mi North 11.5 mph - N/A   Scattered Clouds
8:30 PM 77.0 °F - 71.6 °F 83% 30.01 in 6.2 mi North 10.4 mph - N/A   Scattered Clouds
9:00 PM 76 °F - 72 °F 84% 30.03 in 19 mi North 11.5 mph - -   Partly Cloudy
9:00 PM 77.0 °F - 71.6 °F 83% 30.01 in 6.2 mi North 11.5 mph - N/A   Scattered Clouds
9:30 PM 77.0 °F - 71.6 °F 83% 30.01 in 6.2 mi North 12.7 mph - N/A   Scattered Clouds
10:00 PM 76 °F - 72 °F 84% 30.02 in - North 11.5 mph - -  
10:00 PM 77.0 °F - 71.6 °F 83% 30.01 in 6.2 mi North 11.5 mph - N/A   Scattered Clouds
10:30 PM 77.0 °F - 71.6 °F 83% 30.01 in 6.2 mi North 12.7 mph - N/A   Scattered Clouds
11:00 PM 77.0 °F - 71.6 °F 83% 30.01 in 6.2 mi North 12.7 mph - N/A   Mostly Cloudy